User: anonymous   Login
Location: Unspecified
(0.0000°N, 0.0000°E)
Time: 07:32:37
(UTC+00:00)
Language:

Aussat K2 - Orbit

View from above orbital plane
View from above orbital plane
View from above satellite
View from above satellite

Ground track
Ground track

The orbit data is extracted from the following two-line orbital elements,

1 16275U 85109C   21215.75998292  .00000082  00000-0  00000-0 0  9996
2 16275  14.7184 353.9077 0001778  39.2339 218.7556  0.99946077 28751
Epoch (UTC): 03 August 2021 18:14:22
Eccentricity: 0.0001778
inclination: 14.7184°
perigee height: 35870 km
apogee height: 35885 km
right ascension of ascending node: 353.9077°
argument of perigee: 39.2339°
revolutions per day: 0.99946077
mean anomaly at epoch: 218.7556°
orbit number at epoch: 2875

The dashed part of the orbit path shows where the satellite is in the earth's shadow,  

DLR